GW3602 Weather Reports


time (UTC)temp
F
wind
direction
speed
knots
gust
knots
rain 1hr
in
rain 24hr
in
rain mn
in
humidity
%
barometer
mb
20260510093004 46 337 0.0 1.7 0.00 0.39 0.00 85 1012.1
20260510091509 45 279 0.0 0.9 0.00 0.39 0.00 86 1011.8
20260510090014 46 279 0.0 0.9 0.00 0.39 0.00 86 1011.5
20260510084520 47 226 0.0 0.0 0.00 0.39 0.00 85 1011.6
20260510083041 47 236 0.0 0.0 0.00 0.39 0.00 85 1011.3
20260510081524 47 236 0.0 0.0 0.00 0.39 0.00 84 1011.2
20260510080022 48 236 0.0 0.0 0.00 0.39 0.00 83 1011.0
20260510074516 49 236 0.0 0.9 0.00 0.39 0.00 81 1010.8
20260510073022 50 298 0.0 2.6 0.00 0.39 0.00 80 1010.5
20260510071532 50 75 0.9 4.3 0.00 0.40 0.00 79 1010.4
20260510070028 50 65 1.7 4.3 0.00 0.41 0.00 80 1010.1
20260510064514 51 11 0.0 4.3 0.00 0.41 0.00 82 1010.0
20260510063019 52 294 0.9 4.3 0.00 0.42 0.00 82 1010.0
20260510061522 53 348 0.0 3.5 0.00 0.45 0.00 81 1009.9
20260510060036 54 347 0.0 3.5 0.00 0.58 0.00 80 1009.8
20260510054535 55 295 1.7 5.2 0.00 0.61 0.00 82 1009.7
20260510053015 55 307 0.9 5.2 0.00 0.62 0.00 84 1009.7
20260510051518 54 274 1.7 7.0 0.00 0.63 0.00 85 1009.3
20260510050024 54 209 0.9 3.5 0.00 0.64 0.00 84 1008.1
20260510044525 55 192 2.6 7.0 0.00 0.65 0.00 83 1007.9
20260510043031 55 155 0.0 3.5 0.01 0.68 0.00 83 1007.6
20260510041520 55 125 0.9 4.3 0.01 0.69 0.00 81 1007.5
20260510040022 55 146 1.7 7.0 0.01 0.70 0.00 84 1007.7
20260510034525 55 338 1.7 5.2 0.01 0.71 0.70 84 1007.9
20260510033025 55 181 0.9 4.3 0.04 0.71 0.69 82 1007.9
20260510031528 55 204 0.9 2.6 0.04 0.72 0.69 83 1007.8
20260510030019 55 150 0.0 3.5 0.05 0.73 0.69 83 1007.5
20260510024515 55 297 1.7 7.0 0.05 0.73 0.69 85 1008.0
20260510023008 54 146 0.0 1.7 0.01 0.69 0.65 87 1008.0
20260510021513 54 108 0.9 3.5 0.01 0.69 0.65 87 1007.5
20260510020019 54 87 0.0 1.7 0.00 0.68 0.64 86 1007.5
20260510014523 53 202 0.0 0.9 0.00 0.68 0.64 86 1007.3
20260510013018 54 288 0.0 1.7 0.00 0.68 0.64 86 1007.3
20260510011509 54 245 0.0 1.7 0.00 0.69 0.64 86 1007.3
20260510010013 54 291 0.0 3.5 0.00 0.70 0.64 85 1007.0
20260510004516 55 298 1.7 4.3 0.00 0.71 0.64 85 1007.1
20260510003031 55 143 0.9 7.0 0.04 0.73 0.64 85 1007.0
20260510001524 55 327 0.9 4.3 0.12 0.74 0.64 86 1007.0
20260510000006 55 101 1.7 3.5 0.30 0.76 0.64 88 1006.9
20260509234521 55 288 0.9 7.8 0.33 0.77 0.64 88 1006.9
20260509233019 55 259 4.3 11.3 0.29 0.76 0.60 88 1007.3
20260509231524 54 287 4.3 16.5 0.21 0.69 0.52 87 1006.6
20260509230024 59 300 8.7 20.0 0.03 0.52 0.34 72 1007.1
20260509224507 67 244 2.6 7.8 0.00 0.52 0.31 55 1004.5
20260509223016 67 160 2.6 7.8 0.00 0.56 0.31 54 1004.4
20260509221521 68 293 1.7 11.3 0.00 0.60 0.31 54 1004.5
20260509220027 69 65 3.5 12.2 0.00 0.62 0.31 52 1004.2
20260509214524 70 266 3.5 10.4 0.00 0.62 0.31 53 1004.2
20260509213010 70 120 2.6 10.4 0.00 0.62 0.31 53 1004.2
20260509211517 69 139 3.5 11.3 0.00 0.62 0.31 54 1004.2
20260509210022 70 158 3.5 12.2 0.00 0.62 0.31 56 1004.6
20260509204526 70 270 3.5 8.7 0.00 0.63 0.31 54 1004.9
20260509203036 68 171 5.2 12.2 0.00 0.63 0.31 55 1005.2
20260509201515 69 118 4.3 12.2 0.00 0.63 0.31 54 1005.3
20260509200026 69 254 4.3 11.3 0.00 0.63 0.31 55 1005.4
20260509194506 68 199 3.5 10.4 0.00 0.63 0.31 57 1005.6
20260509193006 67 191 2.6 11.3 0.00 0.63 0.31 58 1005.9
20260509191516 67 265 2.6 11.3 0.00 0.63 0.31 58 1006.2
20260509190019 67 276 1.7 10.4 0.00 0.63 0.31 58 1006.4
20260509184519 67 196 3.5 8.7 0.00 0.63 0.31 58 1006.7
20260509183006 67 322 2.6 7.8 0.00 0.63 0.31 57 1006.5
20260509181509 66 210 3.5 8.7 0.00 0.63 0.31 58 1006.3
20260509180015 66 292 2.6 9.6 0.00 0.63 0.31 61 1006.7
20260509174519 66 95 2.6 7.8 0.00 0.63 0.31 60 1006.6
20260509173024 65 229 3.5 7.0 0.00 0.63 0.31 60 1006.5
20260509171511 65 101 1.7 6.1 0.00 0.63 0.31 65 1006.6
20260509170018 64 207 1.7 7.8 0.00 0.63 0.31 63 1006.5
20260509164522 63 264 0.9 5.2 0.00 0.63 0.31 68 1006.7
20260509163022 63 264 2.6 5.2 0.00 0.63 0.31 68 1007.1
20260509161532 61 292 2.6 7.0 0.00 0.63 0.31 69 1007.3
20260509160010 61 300 1.7 7.8 0.00 0.63 0.31 69 1007.4
20260509154513 61 180 2.6 7.0 0.00 0.63 0.31 71 1007.4
20260509153017 60 287 1.7 5.2 0.00 0.63 0.31 75 1007.3
20260509151521 58 270 1.7 5.2 0.00 0.63 0.31 79 1007.4
20260509150024 58 286 0.9 4.3 0.00 0.63 0.31 80 1007.3
20260509144510 57 108 0.9 4.3 0.00 0.63 0.31 84 1007.4
20260509143014 56 39 0.0 4.3 0.00 0.63 0.31 84 1007.2
20260509141522 56 165 0.9 4.3 0.00 0.63 0.31 85 1007.3
20260509140025 55 150 0.9 4.3 0.00 0.63 0.31 88 1007.3
20260509134526 54 288 0.0 4.3 0.00 0.63 0.31 88 1007.3
20260509133013 54 274 0.9 3.5 0.00 0.63 0.31 89 1007.4
20260509131517 54 194 0.9 3.5 0.00 0.64 0.31 89 1007.3
20260509130022 54 208 0.0 2.6 0.00 0.64 0.31 90 1007.4
20260509124523 53 228 0.9 5.2 0.00 0.67 0.31 90 1007.5
20260509123027 53 153 0.9 2.6 0.00 0.67 0.31 91 1007.8
20260509121528 52 138 0.0 2.6 0.00 0.67 0.31 91 1007.7
20260509120019 52 162 0.0 3.5 0.00 0.67 0.31 91 1007.7
20260509114524 52 251 0.0 2.6 0.00 0.67 0.31 91 1007.7
20260509113026 51 214 0.0 3.5 0.00 0.67 0.31 92 1007.6
20260509111526 51 169 0.9 2.6 0.00 0.67 0.31 91 1007.6
20260509110018 51 206 0.0 1.7 0.00 0.67 0.31 91 1007.4
20260509104524 51 140 0.0 1.7 0.00 0.67 0.31 91 1007.3
20260509103007 51 225 0.0 2.6 0.00 0.67 0.31 91 1007.3
20260509101510 51 135 0.0 1.7 0.00 0.67 0.31 91 1007.4
20260509100017 51 135 0.0 2.6 0.00 0.67 0.31 91 1007.5
20260509094526 51 126 0.0 3.5 0.00 0.67 0.31 91 1007.5